Altoona, PA

4:45 AM EST on November 23, 2017 (GMT -0500)
Altoona-Blair County

Weather History for KAOO - December, 2013

Change the Weather History Date:

Sunday, December 22, 2013

  Actual Average Record
Temperature  
Mean Temperature 60 °F 29 °F  
Max Temperature 65 °F 36 °F 65 °F (2013)
Min Temperature 55 °F 22 °F -6 °F (1989)
Degree Days  
Heating Degree Days 5 36  
Month to date heating degree days 651 731  
Since 1 July heating degree days 1961 2041  
Cooling Degree Days 0 0  
Month to date cooling degree days 0 0  
Year to date cooling degree days 695 522  
Growing Degree Days 10 (Base 50)    
Moisture  
Dew Point 53 °F    
Average Humidity 75    
Maximum Humidity 84    
Minimum Humidity 65    
Precipitation  
Precipitation 0.11 in 0.07 in 0.81 in (2006)
Month to date precipitation 1.83 1.81  
Year to date precipitation 29.12 32.02  
Sea Level Pressure  
Sea Level Pressure 29.84 in    
Wind  
Wind Speed 14 mph (SW)    
Max Wind Speed 29 mph    
Max Gust Speed 36 mph    
Visibility 9 miles    
Events Rain    
T = Trace of Precipitation, MM = Missing Value Source: NWS Daily Summary

Daily Weather History Graph

Daily Weather History Graph

Search for Another Location

Airport or City:

Trip Planner

Search our weather history database for the weather conditions in past years. The results will help you decide how hot, cold, wet, or windy it might be!

Date:

Astronomy

Dec. 22, 2013 Rise Set
Actual Time 7:33 AM EST 4:51 PM EST
Civil Twilight 7:02 AM EST 5:21 PM EST
Nautical Twilight 6:28 AM EST 5:56 PM EST
Astronomical Twilight 5:54 AM EST 6:29 PM EST
Moon 10:02 PM EST (12/22) 10:27 AM EST (12/22)
Length of Visible Light 10h 19m
Length of Day
9h 17m
Waning Gibbous, 77% of the Moon is Illuminated
Dec 22
Waning Gibbous
Dec 25
Last Quarter
Jan 1
New
Jan 7
First Quarter
Jan 15
Full

Hourly Weather History & Observations

Time (EST) Temp. Dew Point Humidity Pressure Visibility Wind Dir Wind Speed Gust Speed Precip Events Conditions
12:53 AM 62.1 °F 55.0 °F 78% 29.75 in 10.0 mi South 15.0 mph 27.6 mph N/A   Clear
1:53 AM 62.1 °F 55.9 °F 80% 29.74 in 10.0 mi SSW 18.4 mph 26.5 mph N/A   Clear
2:53 AM 63.0 °F 55.9 °F 78% 29.70 in 10.0 mi South 16.1 mph 25.3 mph N/A   Clear
3:53 AM 64.0 °F 57.0 °F 78% 29.68 in 10.0 mi SSW 18.4 mph 28.8 mph N/A   Clear
4:47 AM 60.8 °F 57.2 °F 88% 29.78 in 2.5 mi West 18.4 mph 35.7 mph 0.05 in Rain Heavy Rain
4:53 AM 61.0 °F 57.9 °F 90% 29.80 in 3.0 mi West 17.3 mph 27.6 mph 0.05 in Rain Light Rain
5:00 AM 62.1 °F 55.9 °F 80% 29.80 in 10.0 mi West 13.8 mph 27.6 mph 0.01 in Rain Light Rain
5:53 AM 60.1 °F 57.0 °F 90% 29.81 in 10.0 mi SW 9.2 mph - 0.02 in   Overcast
6:53 AM 60.1 °F 55.9 °F 86% 29.85 in 10.0 mi SW 10.4 mph - 0.00 in   Mostly Cloudy
7:53 AM 59.0 °F 55.0 °F 87% 29.91 in 10.0 mi SW 12.7 mph - 0.00 in Rain Light Rain
8:53 AM 59.0 °F 55.9 °F 90% 29.92 in 10.0 mi SSW 12.7 mph - 0.03 in Rain Light Rain
9:53 AM 60.1 °F 55.9 °F 86% 29.89 in 10.0 mi South 12.7 mph - 0.00 in   Overcast
10:53 AM 61.0 °F 53.1 °F 75% 29.86 in 10.0 mi South 20.7 mph 32.2 mph 0.01 in Rain Light Rain
11:53 AM 61.0 °F 53.1 °F 75% 29.79 in 10.0 mi SW 19.6 mph 29.9 mph 0.00 in   Mostly Cloudy
12:53 PM 62.1 °F 52.0 °F 70% 29.79 in 10.0 mi SW 18.4 mph 28.8 mph N/A   Clear
1:53 PM 61.0 °F 53.1 °F 75% 29.80 in 10.0 mi SSW 11.5 mph - N/A   Clear
2:53 PM 62.1 °F 52.0 °F 70% 29.83 in 10.0 mi SW 12.7 mph 24.2 mph N/A   Partly Cloudy
3:53 PM 62.1 °F 50.0 °F 65% 29.86 in 10.0 mi SW 18.4 mph 24.2 mph N/A   Clear
4:53 PM 61.0 °F 50.0 °F 67% 29.88 in 10.0 mi SW 15.0 mph 23.0 mph N/A   Clear
5:53 PM 57.9 °F 50.0 °F 75% 29.88 in 10.0 mi SW 9.2 mph - N/A   Clear
6:53 PM 60.1 °F 50.0 °F 69% 29.91 in 10.0 mi SW 10.4 mph - N/A   Clear
7:53 PM 57.0 °F 50.0 °F 77% 29.94 in 10.0 mi SSW 6.9 mph - N/A   Clear
8:53 PM 57.9 °F 50.0 °F 75% 29.93 in 10.0 mi SSW 9.2 mph - N/A   Mostly Cloudy
9:53 PM 55.9 °F 50.0 °F 80% 29.94 in 10.0 mi SW 10.4 mph - N/A   Mostly Cloudy
10:53 PM 57.0 °F 50.0 °F 77% 29.94 in 10.0 mi SW 12.7 mph - N/A   Clear
11:53 PM 57.0 °F 50.0 °F 77% 29.95 in 10.0 mi SW 12.7 mph - N/A   Mostly Cloudy